EDT,Max TemperatureF,Mean TemperatureF,Min TemperatureF,Max Dew PointF,MeanDew PointF,Min DewpointF,Max Humidity, Mean Humidity, Min Humidity, Max Sea Level PressureIn, Mean Sea Level PressureIn, Min Sea Level PressureIn, Max VisibilityMiles, Mean VisibilityMiles, Min VisibilityMiles, Max Wind SpeedMPH, Mean Wind SpeedMPH, Max Gust SpeedMPH,PrecipitationIn, CloudCover, Events, WindDirDegrees
2012-8-1,75,72,66,69,67,66,100,93,76,29.96,29.89,29.78,10,8,0,18,12,32,0.37,6,Fog-Rain,232
2012-8-2,78,72,66,71,69,66,100,96,76,29.94,29.88,29.84,10,4,0,13,4,,0.01,4,Fog,217
2012-8-3,78,74,69,73,71,69,100,97,83,30.12,30.04,29.95,8,3,0,14,9,21,0.00,6,Fog,218
2012-8-4,79,74,69,75,72,70,100,97,83,30.25,30.21,30.14,10,2,0,13,8,,0.00,6,Fog,207
2012-8-5,78,73,69,73,72,70,100,97,82,30.26,30.18,30.02,10,3,0,17,9,23,0.00,6,Fog,184
2012-8-6,82,76,68,74,70,63,100,91,60,30.01,29.97,29.92,10,6,1,17,11,25,0.50,6,Rain,238
2012-8-7,78,70,64,66,63,59,96,80,54,30.02,30.00,29.96,10,10,8,12,5,,0.00,0,,111
2012-8-8,75,70,64,70,68,64,100,92,79,30.02,30.00,29.98,10,10,5,9,5,,0.00,0,,173
2012-8-9,77,70,62,70,67,62,100,93,69,29.99,29.97,29.94,10,9,2,8,3,,0.00,1,,168
2012-8-10,77,72,69,72,71,69,100,96,82,29.97,29.92,29.85,10,5,0,23,10,28,0.68,5,Fog-Rain,155
2012-8-11,78,74,71,73,72,70,100,96,84,29.99,29.92,29.86,10,5,2,17,12,32,0.46,6,Rain,193
2012-8-12,77,72,69,72,71,70,100,98,85,29.99,29.96,29.93,10,5,1,25,11,34,0.63,6,Rain,186
2012-8-13,80,74,70,73,70,66,100,90,64,29.97,29.94,29.92,10,7,2,15,9,,0.00,3,,226
2012-8-14,81,75,69,71,68,63,100,83,56,29.96,29.95,29.93,10,8,3,12,8,,0.00,0,,236
2012-8-15,78,70,66,73,70,66,100,98,82,29.95,29.90,29.86,10,3,0,12,5,,0.10,3,Fog-Rain,139
2012-8-16,79,74,69,72,69,65,100,88,64,29.88,29.83,29.78,10,9,2,15,6,,0.05,3,Rain,221
2012-8-17,80,75,70,72,70,68,97,84,67,29.87,29.85,29.83,10,9,4,17,10,,0.00,0,,237
2012-8-18,77,70,66,73,68,64,100,90,73,29.89,29.85,29.83,10,7,2,12,8,,0.24,6,Rain,27
2012-8-19,75,68,64,65,64,62,100,85,71,29.95,29.91,29.86,10,10,10,14,6,,0.00,3,,23
2012-8-20,70,66,60,66,62,56,97,84,71,29.93,29.91,29.88,10,10,10,12,4,,0.00,2,,179
2012-8-21,78,70,63,67,64,57,90,80,62,30.09,30.00,29.92,10,10,7,14,5,,0.00,0,,246
2012-8-22,80,70,62,68,65,59,100,86,50,30.15,30.12,30.08,10,8,2,9,3,,0.00,0,,200
2012-8-23,77,68,62,69,66,62,100,89,71,30.17,30.14,30.12,10,9,2,10,3,,0.00,0,,219
2012-8-24,80,72,66,70,68,65,100,90,69,30.21,30.17,30.12,10,6,0,7,5,,0.00,0,Fog,95
2012-8-25,77,70,63,66,63,58,100,85,55,30.31,30.27,30.21,10,7,0,15,6,21,0.00,1,Fog,76
2012-8-26,75,68,59,65,61,55,100,86,52,30.33,30.29,30.25,10,7,0,10,6,,0.00,0,Fog,87
2012-8-27,73,64,55,70,62,55,100,87,68,30.25,30.15,29.99,10,10,2,10,4,,0.01,0,,171
2012-8-28,81,76,71,73,71,67,100,91,69,29.99,29.85,29.73,10,8,4,18,11,26,0.01,5,Rain,227
2012-8-29,73,65,57,67,55,49,84,63,48,29.99,29.92,29.83,10,10,10,17,11,24,0.00,2,,352
2012-8-30,75,67,59,65,59,55,93,73,48,30.06,30.02,29.99,10,10,10,18,9,23,0.00,0,,245
2012-8-31,78,73,69,72,69,65,100,88,71,30.01,29.94,29.86,10,7,3,23,15,31,0.00,1,,241